Regional Weather Roundup
Issued by NWS Charleston, WV

Home | Current Version | Previous Version | Graphics & Text | Print | Product List | Glossary On
Versions: 1 2 3 4 5 6 7 8 9 10 11 12 13 14 15 16 17 18 19 20 21 22 23 24 25 26 27 28 29 30 31 32 33 34 35 36 37 38 39 40 41 42 43 44 45 46 47 48 49 50
000
ASUS41 KRLX 201110
RWRRLX
West Virginia Regional Weather Roundup
National Weather Service Charleston WV
600 AM EST MON FEB 20 2017

Note: "fair" indicates few or no clouds below 12,000 feet with no
significant weather and/or obstructions to visibility.

WVZ003-201200-
Northern Panhandle of West Virginia

CITY           SKY/WX    TMP DP  RH WIND       PRES   REMARKS
WHEELING       FOG       43  42  97 SW5       30.22R VSB 1/4
$$

WVZ009-201200-
Northwest West Virginia

CITY           SKY/WX    TMP DP  RH WIND       PRES   REMARKS
PARKERSBURG    FOG       34  33  96 CALM      30.25R VSB 1/4
$$

WVZ006-201200-
Western West Virginia

CITY           SKY/WX    TMP DP  RH WIND       PRES   REMARKS
HUNTINGTON     FOG       35  34  96 CALM      30.22R VSB 1/4
$$

WVZ015-201200-
West Central West Virginia

CITY           SKY/WX    TMP DP  RH WIND       PRES   REMARKS
CHARLESTON     FOG       37  36  96 NE3       30.22S VSB 1/4
$$

WVZ022-031-201200-
North Central West Virginia

CITY           SKY/WX    TMP DP  RH WIND       PRES   REMARKS
CLARKSBURG     CLOUDY    47  43  86 S3        30.23R
MORGANTOWN     CLOUDY    49  43  80 SW3       30.23R
$$

WVZ025-035-042-045-201200-
Southern West Virginia

CITY           SKY/WX    TMP DP  RH WIND       PRES   REMARKS
BECKLEY        FOG       35  34  96 E3        30.20S VSB 1/4
LOGAN          FOG       43  43 100 CALM      30.20S VSB 1/2
BLUEFIELD      CLOUDY    43  40  89 SW3       30.21R
LEWISBURG      FOG       32  32 100 CALM      30.22R VSB<1/4
$$

WVZ047-201200-
Northern Mountains of West Virginia

CITY           SKY/WX    TMP DP  RH WIND       PRES   REMARKS
ELKINS         CLEAR     36  33  89 CALM      30.23S FOG
$$

WVZ052-201200-
Eastern Panhandle of West Virginia

CITY           SKY/WX    TMP DP  RH WIND       PRES   REMARKS
MARTINSBURG    CLEAR     42  37  82 CALM      30.16R
PETERSBURG     FOG       34  33  97 CALM      30.21R VSB 1
$$



USA.gov is the U.S. government's official web portal to all federal, state and local government web resources and services.